www.pogodaiklimat.ru

Погода и климат >> Архив погоды >> Канада >> Манитоба >> Дауфин аэропорт


ПОГОДА в Дауфин аэропорту

  • Прогноз погоды в Дауфин аэропорту
  • Монитор погоды в Дауфин аэропорту

АРХИВ ПОГОДЫ в Дауфин аэропорту

Время (UTC), дата Ветер
(напр.,м/с)
 
Видим.   Явления Облачность Т
(С)
Тd
(С)
f
(%)
Тe
(С)
Тes
(С)
Комфортность P
(гПа)
Po
(гПа)
Тmin
(С)
Tmax
(С)
R
(мм)
R24
(мм)
S
(см)
12 15.05 С 3 16 км ясно +3.8 -0.9 71 +1 +1 1012.8 975.9 +1.4 +16.5
15 15.05 ЮВ 4 16 км 9/9 1500 м
[]
+14.9 -1.4 33 +14 +15 1009.5 972.9
18 15.05 В 6 16 км 10/10 1000 м
[]
+13.8 +0.7 41 +12 +12 1006.4 969.7 +1.4 +16.7
21 15.05 ЮЗ 3 16 км слаб. дождь {осадки} 10/10 600 м
[]
+13.5 +11.7 89 +12 +12 1004.0 967.3
00 16.05 З 6 16 км {осадки} 9/9 1000 м
[]
+15.9 +12.2 79 +15 +15 1002.5 965.9 +1.4 +16.7 5
03 16.05 С 9 16 км 10/10 300 м
[]
+7.9 +5.7 86 +3 +3 1007.5 970.9
06 16.05 С 9 16 км 10/10 300 м
[]
+6.6 +4.3 85 +1 +1 1011.4 974.5 +1.4 +16.7 31
09 16.05 С 8 16 км 10/10 300 м
[]
+6.0 +3.7 85 +1 +1 1014.8 977.8
12 16.05 СЗ 4 16 км ясно +2.1 -1.1 79 -2 -2 1017.6 980.4 +1.9 +16.7
15 16.05 С 5 16 км 9/9 600 м
[]
+5.9 -2.0 57 +2 +2 1019.1 981.7
18 16.05 С 5 16 км ясно +9.0 -3.0 43 +6 +16 опасность
простуды
1019.0 981.7 +1.9 +9.1
21 16.05 СВ 6 16 км ясно +11.9 -2.7 36 +10 +14 1017.9 980.7
00 17.05 СВ 5 16 км ясно +11.0 -1.5 42 +9 +10 1018.6 981.2 +1.9 +12.7
03 17.05 В 2 16 км ясно +5.1 -3.1 55 +4 +4 1019.0 981.5
06 17.05 ЮЗ 3 16 км ясно -0.5 -3.7 79 -5 -5 1019.5 981.9 -2.6 +12.7 71
09 17.05 З 5 16 км ясно -1.1 -3.3 85 -7 -7 1019.4 981.9
12 17.05 З 4 16 км ясно +0.5 -2.3 81 -4 -4 1019.3 981.8 -3.7 +12.7
15 17.05 СВ 2 16 км ясно +10.6 -0.9 45 +10 +19 1019.8 982.5
18 17.05 С 5 16 км ясно +14.5 -4.7 26 +13 +23 1019.5 982.1 -3.7 +14.5
21 17.05 СВ 5 16 км ясно +15.1 -5.6 23 +14 +20 1019.0 981.6
00 18.05 СВ 7 16 км ясно +14.3 -1.7 33 +12 +13 1019.0 981.7 -3.7 +15.5
03 18.05 В 7 16 км ясно +6.9 -1.3 56 +3 +3 1020.6 983.3
06 18.05 СВ 4 16 км ясно +1.5 -3.0 72 -3 -3 1022.7 985.3 -3.7 +15.5 21
09 18.05 В 5 16 км ясно +1.8 -1.6 78 -3 -3 1022.6 985.2
12 18.05 В 6 16 км 5/5 600 м
[]
+3.0 -0.6 77 -3 -3 1023.6 986.2 +1.5 +15.5
15 18.05 В 9 16 км 9/9 1000 м
[]
+6.6 -2.2 53 +2 +2 1024.8 987.2
18 18.05 СВ 8 16 км 9/9 1000 м
[]
+9.3 -2.4 44 +6 +6 1024.3 986.6 +1.5 +10.9
21 18.05 СВ 10 16 км 3/3 1500 м
[]
+11.9 -1.9 38 +9 +9 1023.3 985.8
00 19.05 СВ 9 12 км 3/3 1500 м
[]
+11.2 -1.8 40 +8 +8 1022.9 985.4 +1.5 +12.8
03 19.05 СВ 6 16 км ясно +6.3 -2.1 55 +2 +2 1023.8 986.2
06 19.05 СВ 4 16 км ясно +1.7 -2.6 73 -3 -3 1024.4 986.7 +1.5 +12.8 171
09 19.05 З 3 16 км ясно -2.4 -4.1 88 -8 -8 1024.4 986.7
12 19.05 З 2 16 км ясно +1.1 -0.7 88 -2 -2 1025.0 987.4 -2.9 +12.8
15 19.05 В 5 16 км 5/5 1500 м
[]
+9.4 -0.2 51 +7 +9 1024.9 987.4
18 19.05 СВ 7 16 км 9/9 1000 м
[]
+11.7 +0.1 45 +9 +10 1024.3 986.7 -2.9 +12.2
21 19.05 СВ 7 16 км ясно +14.2 +0.9 40 +12 +16 1022.8 985.2
00 20.05 СВ 8 16 км ясно +14.4 +1.1 40 +12 +13 1021.7 984.3 -2.9 +15.1
03 20.05 СВ 3 16 км ясно +8.6 -0.1 54 +6 +6 1022.2 984.9
06 20.05 З 3 16 км 9/0 2000 м
[]
+3.8 -0.2 75 0 0 1023.1 985.6 -2.9 +15.1 201
09 20.05 З 3 16 км 10/0 2000 м
[]
+5.3 +0.9 73 +2 +2 1023.1 985.8
12 20.05 СЗ 2 16 км 9/0 2000 м
[]
+7.3 +2.5 72 +6 +6 1023.4 986.2 +3.1 +15.1
15 20.05 С 2 16 км ясно +12.8 +3.1 52 +13 +22 1024.2 986.9
18 20.05 В 4 16 км ясно +17.8 -0.4 29 +18 +28 1023.0 985.8 +3.1 +17.8
21 20.05 В 4 16 км ясно +18.9 -0.2 28 +19 +27 1021.5 984.4
00 21.05 СВ 5 16 км ясно +19.2 -1.9 24 +19 +21 1021.0 984.0 +3.8 +19.9
03 21.05 СВ 3 16 км ясно +10.7 -1.5 43 +9 +9 1020.6 983.5
06 21.05 ЮВ 4 16 км ясно +9.0 -0.1 53 +7 +7 1020.7 983.7 +3.8 +19.9 20
09 21.05 З 3 16 км ясно -0.1 -3.3 79 -4 -4 1021.3 984.0
12 21.05 З 2 16 км ясно +3.5 -1.1 72 +1 +1 1021.0 983.9 -0.7 +19.9
15 21.05 В 2 16 км ясно +16.0 +2.5 40 +16 +24 1020.5 983.5
18 21.05 В 5 16 км ясно +21.1 -0.2 24 +21 +29 комфорт 1019.3 982.5 -0.7 +21.4
21 21.05 В 6 16 км ясно +22.6 -1.9 19 +21 +27 комфорт 1017.8 980.8
00 22.05 В 6 16 км ясно +21.6 -3.6 18 +21 +22 комфорт 1016.6 979.7 -0.7 +23.0
03 22.05 В 4 16 км ясно +14.2 +1.9 43 +13 +13 1016.3 979.6
06 22.05 З 2 16 км ясно +9.2 +2.2 62 +8 +8 1016.7 980.0 -0.7 +23.0 231
09 22.05 З 3 16 км ясно +4.3 +0.3 75 +1 +1 1015.1 978.3

 

Местоположение метеостанции Дауфин аэропорт (Манитоба, Канада): широта 51.10 долгота -100.05 высота над уровнем моря 305 м.

В архиве по умолчанию представлена погода в Дауфин аэропорту за последнюю неделю. Архивные данные за месяц целиком и за предыдущие месяцы, начиная с января 2011 года, Вы можете получить, выбрав интересующий диапазон дат из раскрывающегося списка и нажав кнопку "Ввод!".


*Определитесь, кто Вы:
робот инопланетянин человек

Внимание! Время в таблицах - всемирное. Для получения местного времени необходимо прибавить поправку, которая равна -8 ч.

Смотрите также архив погоды в соседних городах и на ближайших метеорологических станциях:

Погода в Дауфине (Манитоба, Канада) (3 км)
Погода в Васагаминге (Манитоба, Канада) (51 км)
Погода в Уилсон Крик (Манитоба, Канада) (56 км)
Погода в Шол Лейк (Манитоба, Канада) (82 км)
Погода в Роблине (Манитоба, Канада) (88 км)
Погода в Туллиби Лейк (Альберта, Канада) (110 км)
Погода в Брандон аэропорту (Манитоба, Канада) (131 км)
Погода в Брандоне (Манитоба, Канада) (134 км)
Погода в Суон Ривер (Манитоба, Канада) (138 км)
Погода в Карберри (Манитоба, Канада) (142 км)

Пояснения к столбцам:

Ветер - указаны скорость ветра в м/с - средняя за 10 мин, порывы в срок и между сроками (в фигурных скобках) и направление, откуда дует ветер: С - северный, СВ - северо-восточный, В - восточный, ЮВ - юго-восточный, Ю - южный, ЮЗ - юго-западный, З - западный, СЗ - северо-западный.
Видимость - горизонтальная дальность видимости в метрах или километрах. При видимости от 1 до 10 км при отсутствии осадков обычно наблюдается дымка, при ухудшении видимости до 1 км и менее - туман. В сухую погоду видимость может ухудшаться дымом, пылью или мглою.
Явления - указаны атмосферные явления, наблюдавшиеся в срок или в последний час перед сроком; фигурными скобками обозначены явления, наблюдавшиеся между сроками (за 1-3 часа до срока); квадратными скобками обозначены град или гололедные отложения с указанием их диаметра в мм.
Облачность - указаны через наклонную черту общая и нижняя облачность в баллах и высота нижней границы облаков в метрах; квадратными скобками обозначены формы облаков: Ci - перистые, Cs - перисто-слоистые, Cc - перисто-кучевые, Ac - высококучевые, As - высокослоистые, Sc - слоисто-кучевые, Ns - слоисто-дождевые, Cu - кучевые, Cb - кучево-дождевые. Подробнее классификацию облаков см. в Атласе облаков (PDF).
T - Температура воздуха - температура, измеренная на высоте 2 м над землей.
Td - Температура точки росы - температура, при понижении до которой содержащийся в воздухе водяной пар достигнет насыщения.
f - Относительная влажность воздуха - влажноcть воздуха, измеренная на высоте 2 м над землей.
Te - Эффективная температура - температура, которую ощущает одетый по сезону человек в тени. Характеристика душности погоды. При расчете учитывается влияние влажности воздуха и скорости ветра на теплоощущения человека.
Tes - Эффективная температура на солнце - температура, которую ощущает человек, с поправкой на солнечный нагрев. Характеристика знойности погоды. Зависит от высоты солнца над горизонтом, облачности и скорости ветра. Ночью, в пасмурную погоду, а также при ветре 12 м/с и более поправка равна нулю.
P - Атмосферное давление - приведенное к уровню моря атмосферное давление.
Po - Атмосферное давление - измеренное на уровне метеостанции атмосферное давление.
Tmin - Минимальная температура - минимум температуры воздуха на высоте 2 м над землей.
Tmax - Максимальная температура - максимум температуры воздуха на высоте 2 м над землей.
R - Количество осадков - Количество выпавших осадков за период времени, мм. При наведении курсора мыши на число - период времени, за который выпало указанное количество осадков.
R24 - Количество осадков - Количество выпавших осадков за 24 часа, мм.
S - Снежный покров - Высота снежного покрова, см. При наведении курсора мыши на число - состояние снежного покрова и степень покрытия местности в баллах.